Time,TemperatureF,DewpointF,PressureIn,WindDirection,WindDirectionDegrees,WindSpeedMPH,WindSpeedGustMPH,Humidity,HourlyPrecipIn,Conditions,Clouds,dailyrainin,SoftwareType,DateUTC
2013-05-24 00:08:00,59.5,50.0,29.95,West,260,3.0,19.0,72,0.00,,,0.00,weatherlink.com 1.10,2013-05-24 04:08:00,
2013-05-24 00:23:00,59.5,50.0,29.95,WNW,286,10.0,20.0,71,0.00,,,0.00,weatherlink.com 1.10,2013-05-24 04:23:00,
2013-05-24 00:38:00,59.3,50.0,29.95,WNW,297,8.0,19.0,71,0.00,,,0.00,weatherlink.com 1.10,2013-05-24 04:38:00,
2013-05-24 00:53:00,58.9,50.0,29.96,NW,312,6.0,12.0,72,0.00,,,0.00,weatherlink.com 1.10,2013-05-24 04:53:00,
2013-05-24 01:08:00,58.4,50.0,29.97,NW,311,3.0,8.0,74,0.00,,,0.00,weatherlink.com 1.10,2013-05-24 05:08:00,
2013-05-24 01:23:00,57.7,50.0,29.98,NW,313,0.0,4.0,76,0.00,,,0.00,weatherlink.com 1.10,2013-05-24 05:23:00,
2013-05-24 01:38:00,57.2,50.0,29.98,WNW,301,3.0,4.0,78,0.00,,,0.00,weatherlink.com 1.10,2013-05-24 05:38:00,
2013-05-24 01:53:00,57.0,51.0,29.98,NW,304,0.0,4.0,79,0.00,,,0.00,weatherlink.com 1.10,2013-05-24 05:53:00,
2013-05-24 02:08:00,56.5,50.0,29.97,WNW,293,3.0,7.0,80,0.00,,,0.00,weatherlink.com 1.10,2013-05-24 06:08:00,
2013-05-24 02:23:00,57.3,50.0,29.97,WNW,297,1.0,9.0,77,0.00,,,0.00,weatherlink.com 1.10,2013-05-24 06:23:00,
2013-05-24 02:38:00,57.5,50.0,29.97,WNW,288,2.0,7.0,76,0.00,,,0.00,weatherlink.com 1.10,2013-05-24 06:38:00,
2013-05-24 02:53:00,57.4,50.0,29.98,NW,319,6.0,8.0,76,0.00,,,0.00,weatherlink.com 1.10,2013-05-24 06:53:00,
2013-05-24 03:08:00,57.1,50.0,29.97,NNW,340,3.0,10.0,76,0.00,,,0.00,weatherlink.com 1.10,2013-05-24 07:08:00,
2013-05-24 03:23:00,56.8,49.0,29.97,WNW,295,3.0,11.0,76,0.00,,,0.00,weatherlink.com 1.10,2013-05-24 07:23:00,
2013-05-24 03:38:00,56.7,49.0,29.97,West,276,1.0,11.0,75,0.00,,,0.00,weatherlink.com 1.10,2013-05-24 07:38:00,
2013-05-24 03:53:00,56.6,48.0,29.98,NE,51,6.0,8.0,73,0.00,,,0.00,weatherlink.com 1.10,2013-05-24 07:53:00,
2013-05-24 04:09:00,56.7,48.0,29.98,NW,309,1.0,10.0,73,0.00,,,0.00,weatherlink.com 1.10,2013-05-24 08:09:00,
2013-05-24 04:24:00,56.7,48.0,29.98,NW,323,3.0,9.0,73,0.00,,,0.00,weatherlink.com 1.10,2013-05-24 08:24:00,
2013-05-24 04:39:00,55.9,49.0,29.98,NNE,16,2.0,10.0,78,0.00,,,0.00,weatherlink.com 1.10,2013-05-24 08:39:00,
2013-05-24 04:54:00,54.3,49.0,29.99,NW,326,1.0,7.0,81,0.01,,,0.01,weatherlink.com 1.10,2013-05-24 08:54:00,
2013-05-24 05:09:00,53.8,48.0,29.99,NNW,331,0.0,5.0,82,0.01,,,0.01,weatherlink.com 1.10,2013-05-24 09:09:00,
2013-05-24 05:24:00,53.0,48.0,30.00,WNW,299,2.0,6.0,83,0.01,,,0.01,weatherlink.com 1.10,2013-05-24 09:24:00,
2013-05-24 05:39:00,52.0,48.0,30.00,NW,304,0.0,3.0,86,0.01,,,0.01,weatherlink.com 1.10,2013-05-24 09:39:00,
2013-05-24 05:54:00,50.5,47.0,30.00,NW,304,0.0,0.0,89,0.00,,,0.01,weatherlink.com 1.10,2013-05-24 09:54:00,
2013-05-24 06:09:00,49.2,47.0,29.99,NW,304,0.0,0.0,93,0.00,,,0.01,weatherlink.com 1.10,2013-05-24 10:09:00,
2013-05-24 06:24:00,48.7,47.0,30.00,SW,226,0.0,2.0,94,0.00,,,0.01,weatherlink.com 1.10,2013-05-24 10:24:00,
2013-05-24 06:39:00,48.4,47.0,30.00,SW,231,0.0,1.0,95,0.00,,,0.01,weatherlink.com 1.10,2013-05-24 10:39:00,
2013-05-24 06:54:00,48.4,47.0,30.00,East,90,0.0,1.0,95,0.00,,,0.01,weatherlink.com 1.10,2013-05-24 10:54:00,
2013-05-24 07:09:00,48.9,48.0,30.00,NE,38,1.0,3.0,96,0.00,,,0.01,weatherlink.com 1.10,2013-05-24 11:09:00,
2013-05-24 07:24:00,52.1,49.0,30.01,North,5,2.0,7.0,90,0.00,,,0.01,weatherlink.com 1.10,2013-05-24 11:24:00,
2013-05-24 07:39:00,54.1,49.0,30.01,ENE,78,0.0,7.0,84,0.01,,,0.02,weatherlink.com 1.10,2013-05-24 11:39:00,
2013-05-24 07:54:00,55.1,49.0,30.02,NNW,348,4.0,7.0,81,0.01,,,0.02,weatherlink.com 1.10,2013-05-24 11:54:00,
2013-05-24 08:09:00,55.6,49.0,30.02,North,8,4.0,12.0,78,0.01,,,0.02,weatherlink.com 1.10,2013-05-24 12:09:00,
2013-05-24 08:24:00,58.0,50.0,30.02,NNW,336,2.0,7.0,74,0.01,,,0.02,weatherlink.com 1.10,2013-05-24 12:24:00,
2013-05-24 08:39:00,57.7,49.0,30.03,NE,52,3.0,11.0,73,0.00,,,0.02,weatherlink.com 1.10,2013-05-24 12:39:00,
2013-05-24 08:54:00,58.1,48.0,30.03,WNW,297,4.0,14.0,68,0.00,,,0.02,weatherlink.com 1.10,2013-05-24 12:54:00,
2013-05-24 09:09:00,59.1,49.0,30.05,WNW,299,3.0,15.0,69,0.00,,,0.02,weatherlink.com 1.10,2013-05-24 13:09:00,
2013-05-24 09:24:00,58.6,46.0,30.06,NNE,30,3.0,16.0,63,0.00,,,0.02,weatherlink.com 1.10,2013-05-24 13:24:00,
2013-05-24 09:39:00,58.6,45.0,30.07,WNW,298,4.0,18.0,60,0.00,,,0.02,weatherlink.com 1.10,2013-05-24 13:39:00,
2013-05-24 09:54:00,59.2,46.0,30.07,NW,307,3.0,13.0,61,0.00,,,0.02,weatherlink.com 1.10,2013-05-24 13:54:00,
2013-05-24 10:09:00,58.5,42.0,30.07,NW,314,9.0,20.0,54,0.00,,,0.02,weatherlink.com 1.10,2013-05-24 14:09:00,
2013-05-24 10:24:00,58.6,43.0,30.08,NW,305,2.0,12.0,56,0.00,,,0.02,weatherlink.com 1.10,2013-05-24 14:24:00,
2013-05-24 10:39:00,59.1,44.0,30.10,WNW,290,9.0,16.0,58,0.00,,,0.02,weatherlink.com 1.10,2013-05-24 14:39:00,
2013-05-24 10:54:00,59.0,44.0,30.10,NNW,345,9.0,13.0,59,0.00,,,0.02,weatherlink.com 1.10,2013-05-24 14:54:00,
2013-05-24 11:10:00,59.5,44.0,30.11,NE,47,4.0,13.0,56,0.00,,,0.02,weatherlink.com 1.10,2013-05-24 15:10:00,
2013-05-24 11:25:00,60.3,43.0,30.12,NW,319,6.0,10.0,53,0.00,,,0.02,weatherlink.com 1.10,2013-05-24 15:25:00,
2013-05-24 11:40:00,60.3,41.0,30.12,NW,308,2.0,11.0,49,0.00,,,0.02,weatherlink.com 1.10,2013-05-24 15:40:00,
2013-05-24 11:55:00,60.9,41.0,30.13,NW,318,9.0,9.0,48,0.00,,,0.02,weatherlink.com 1.10,2013-05-24 15:55:00,
2013-05-24 12:10:00,61.0,40.0,30.13,West,269,2.0,14.0,46,0.00,,,0.02,weatherlink.com 1.10,2013-05-24 16:10:00,
2013-05-24 12:25:00,61.8,41.0,30.13,West,266,1.0,11.0,47,0.00,,,0.02,weatherlink.com 1.10,2013-05-24 16:25:00,
2013-05-24 12:40:00,62.6,41.0,30.13,NW,324,10.0,11.0,45,0.00,,,0.02,weatherlink.com 1.10,2013-05-24 16:40:00,
2013-05-24 12:55:00,62.6,40.0,30.14,North,359,3.0,9.0,43,0.00,,,0.02,weatherlink.com 1.10,2013-05-24 16:55:00,
2013-05-24 13:10:00,63.3,41.0,30.14,WNW,291,1.0,9.0,45,0.00,,,0.02,weatherlink.com 1.10,2013-05-24 17:10:00,
2013-05-24 13:25:00,63.6,41.0,30.14,WSW,253,2.0,11.0,44,0.00,,,0.02,weatherlink.com 1.10,2013-05-24 17:25:00,
2013-05-24 13:40:00,64.3,40.0,30.14,NNE,19,8.0,11.0,41,0.00,,,0.02,weatherlink.com 1.10,2013-05-24 17:40:00,
2013-05-24 13:55:00,64.5,40.0,30.15,NE,39,7.0,11.0,40,0.00,,,0.02,weatherlink.com 1.10,2013-05-24 17:55:00,
2013-05-24 14:10:00,64.7,40.0,30.15,NNW,327,6.0,16.0,40,0.00,,,0.02,weatherlink.com 1.10,2013-05-24 18:10:00,
2013-05-24 14:25:00,65.3,39.0,30.15,WNW,290,3.0,10.0,38,0.00,,,0.02,weatherlink.com 1.10,2013-05-24 18:25:00,
2013-05-24 14:40:00,66.0,37.0,30.14,WNW,300,3.0,10.0,34,0.00,,,0.02,weatherlink.com 1.10,2013-05-24 18:40:00,
2013-05-24 14:55:00,66.7,37.0,30.15,SW,221,3.0,9.0,34,0.00,,,0.02,weatherlink.com 1.10,2013-05-24 18:55:00,
2013-05-24 15:10:00,67.2,38.0,30.15,WNW,284,1.0,8.0,34,0.00,,,0.02,weatherlink.com 1.10,2013-05-24 19:10:00,
2013-05-24 15:25:00,66.9,35.0,30.16,WNW,300,1.0,13.0,31,0.00,,,0.02,weatherlink.com 1.10,2013-05-24 19:25:00,
2013-05-24 15:40:00,66.4,35.0,30.15,NW,314,6.0,14.0,31,0.00,,,0.02,weatherlink.com 1.10,2013-05-24 19:40:00,
2013-05-24 15:55:00,67.3,36.0,30.15,SW,232,3.0,8.0,32,0.00,,,0.02,weatherlink.com 1.10,2013-05-24 19:55:00,
2013-05-24 16:10:00,67.1,36.0,30.16,WNW,295,2.0,10.0,32,0.00,,,0.02,weatherlink.com 1.10,2013-05-24 20:10:00,
2013-05-24 16:25:00,66.9,35.0,30.16,NW,314,4.0,11.0,31,0.00,,,0.02,weatherlink.com 1.10,2013-05-24 20:25:00,
2013-05-24 16:40:00,67.0,34.0,30.16,NW,314,6.0,10.0,29,0.00,,,0.02,weatherlink.com 1.10,2013-05-24 20:40:00,
2013-05-24 16:55:00,66.9,33.0,30.16,North,11,1.0,10.0,28,0.00,,,0.02,weatherlink.com 1.10,2013-05-24 20:55:00,
2013-05-24 17:10:00,67.2,33.0,30.17,North,353,4.0,7.0,28,0.00,,,0.02,weatherlink.com 1.10,2013-05-24 21:10:00,
2013-05-24 17:25:00,67.2,34.0,30.17,WNW,299,3.0,6.0,29,0.00,,,0.02,weatherlink.com 1.10,2013-05-24 21:25:00,
2013-05-24 17:40:00,66.8,32.0,30.17,NW,312,3.0,10.0,27,0.00,,,0.02,weatherlink.com 1.10,2013-05-24 21:40:00,
2013-05-24 17:55:00,66.7,32.0,30.17,WSW,242,3.0,7.0,27,0.00,,,0.02,weatherlink.com 1.10,2013-05-24 21:55:00,
2013-05-24 18:10:00,65.5,32.0,30.18,WNW,285,1.0,9.0,29,0.00,,,0.02,weatherlink.com 1.10,2013-05-24 22:10:00,
2013-05-24 18:25:00,64.9,33.0,30.18,NW,319,4.0,9.0,30,0.00,,,0.02,weatherlink.com 1.10,2013-05-24 22:25:00,
2013-05-24 18:40:00,63.9,31.0,30.18,WNW,290,4.0,10.0,29,0.00,,,0.02,weatherlink.com 1.10,2013-05-24 22:40:00,
2013-05-24 18:55:00,63.2,31.0,30.18,NW,306,3.0,8.0,30,0.00,,,0.02,weatherlink.com 1.10,2013-05-24 22:55:00,
2013-05-24 19:10:00,62.2,30.0,30.19,North,354,4.0,12.0,30,0.00,,,0.02,weatherlink.com 1.10,2013-05-24 23:10:00,
2013-05-24 19:26:00,61.4,30.0,30.20,WNW,300,1.0,10.0,30,0.00,,,0.02,weatherlink.com 1.10,2013-05-24 23:26:00,
2013-05-24 19:41:00,60.3,32.0,30.20,NW,309,1.0,8.0,34,0.00,,,0.02,weatherlink.com 1.10,2013-05-24 23:41:00,
2013-05-24 19:56:00,59.2,31.0,30.21,North,9,3.0,7.0,34,0.00,,,0.02,weatherlink.com 1.10,2013-05-24 23:56:00,
2013-05-24 20:11:00,58.0,30.0,30.21,North,11,2.0,7.0,34,0.00,,,0.02,weatherlink.com 1.10,2013-05-25 00:11:00,
2013-05-24 20:26:00,57.0,30.0,30.21,WNW,301,1.0,6.0,36,0.00,,,0.02,weatherlink.com 1.10,2013-05-25 00:26:00,
2013-05-24 20:41:00,55.0,33.0,30.22,SW,224,0.0,1.0,44,0.00,,,0.02,weatherlink.com 1.10,2013-05-25 00:41:00,
2013-05-24 20:56:00,53.6,33.0,30.22,North,11,0.0,4.0,46,0.00,,,0.02,weatherlink.com 1.10,2013-05-25 00:56:00,
2013-05-24 21:11:00,53.9,31.0,30.22,NE,45,3.0,6.0,42,0.00,,,0.02,weatherlink.com 1.10,2013-05-25 01:11:00,
2013-05-24 21:26:00,53.1,34.0,30.23,ENE,66,2.0,3.0,49,0.00,,,0.02,weatherlink.com 1.10,2013-05-25 01:26:00,
2013-05-24 21:41:00,51.1,35.0,30.23,ENE,63,0.0,4.0,54,0.00,,,0.02,weatherlink.com 1.10,2013-05-25 01:41:00,
2013-05-24 21:56:00,49.1,35.0,30.23,East,98,0.0,1.0,58,0.00,,,0.02,weatherlink.com 1.10,2013-05-25 01:56:00,
2013-05-24 22:11:00,47.5,36.0,30.24,East,98,0.0,0.0,64,0.00,,,0.02,weatherlink.com 1.10,2013-05-25 02:11:00,
2013-05-24 22:26:00,46.3,37.0,30.24,NNE,25,0.0,1.0,70,0.00,,,0.02,weatherlink.com 1.10,2013-05-25 02:26:00,
2013-05-24 22:41:00,45.1,37.0,30.25,ENE,74,0.0,1.0,73,0.00,,,0.02,weatherlink.com 1.10,2013-05-25 02:41:00,
2013-05-24 22:56:00,43.6,37.0,30.26,ENE,73,0.0,1.0,76,0.00,,,0.02,weatherlink.com 1.10,2013-05-25 02:56:00,
2013-05-24 23:11:00,42.8,37.0,30.27,ENE,74,0.0,1.0,81,0.00,,,0.02,weatherlink.com 1.10,2013-05-25 03:11:00,
2013-05-24 23:26:00,41.9,37.0,30.27,ENE,74,0.0,0.0,84,0.00,,,0.02,weatherlink.com 1.10,2013-05-25 03:26:00,
2013-05-24 23:41:00,42.2,38.0,30.28,NW,314,0.0,1.0,84,0.00,,,0.02,weatherlink.com 1.10,2013-05-25 03:41:00,
2013-05-24 23:56:00,41.7,37.0,30.28,NW,315,0.0,0.0,84,0.00,,,0.02,weatherlink.com 1.10,2013-05-25 03:56:00,